Lancaster, TX

11:42 PM CDT on May 29, 2017 (GMT -0500)
Lancaster

Weather History for KLNC - December, 2013

Change the Weather History Date:

Thursday, December 12, 2013

  Actual Average (KRBD) Record (KRBD)
Temperature  
Mean Temperature 36 °F -  
Max Temperature 47 °F 55 °F 73 °F (2015)
Min Temperature 26 °F 37 °F 19 °F (2000)
Degree Days  
Heating Degree Days 28    
Moisture  
Dew Point 30 °F    
Average Humidity 78    
Maximum Humidity 92    
Minimum Humidity 55    
Precipitation  
Precipitation 0.00 in - - ()
Sea Level Pressure  
Sea Level Pressure 30.51 in    
Wind  
Wind Speed 1 mph (North)    
Max Wind Speed 6 mph    
Max Gust Speed -    
Visibility 9 miles    
Events      
Averages and records for this station are not official NWS values.
T = Trace of Precipitation, MM = Missing Value Source: NWS Daily Summary

Daily Weather History Graph

Daily Weather History Graph

Search for Another Location

Airport or City:

Trip Planner

Search our weather history database for the weather conditions in past years. The results will help you decide how hot, cold, wet, or windy it might be!

Date:

Astronomy

Dec. 12, 2013 Rise Set
Actual Time 7:19 AM CST 5:21 PM CST
Civil Twilight 6:52 AM CST 5:49 PM CST
Nautical Twilight 6:21 AM CST 6:19 PM CST
Astronomical Twilight 5:51 AM CST 6:49 PM CST
Moon 2:19 PM CST (12/12) 2:54 AM CST (12/12)
Length of Visible Light 10h 56m
Length of Day
10h 02m
Waxing Gibbous, 80% of the Moon is Illuminated
Dec 12
Waxing Gibbous
Dec 17
Full
Dec 25
Last Quarter
Jan 1
New
Jan 7
First Quarter

Hourly Weather History & Observations

Time (CST) Temp. Windchill Dew Point Humidity Pressure Visibility Wind Dir Wind Speed Gust Speed Precip Events Conditions
12:15 AM 32.2 °F - 27.1 °F 82% 30.60 in 10.0 mi Calm Calm - N/A   Clear
12:35 AM 31.6 °F 27.0 °F 27.3 °F 84% 30.60 in 10.0 mi North 4.6 mph - N/A   Clear
12:55 AM 31.1 °F 27.7 °F 27.5 °F 87% 30.59 in 10.0 mi North 3.5 mph - N/A   Clear
1:15 AM 30.9 °F - 27.5 °F 87% 30.59 in 10.0 mi Calm Calm - N/A   Clear
1:35 AM 30.9 °F - 27.3 °F 86% 30.59 in 10.0 mi Calm Calm - N/A   Clear
1:55 AM 30.9 °F - 26.6 °F 84% 30.59 in 10.0 mi Calm Calm - N/A   Clear
2:15 AM 30.9 °F - 26.6 °F 84% 30.59 in 10.0 mi Calm Calm - N/A   Clear
2:35 AM 29.8 °F - 26.2 °F 86% 30.59 in 10.0 mi Calm Calm - N/A   Clear
2:55 AM 29.8 °F 26.3 °F 26.8 °F 88% 30.60 in 7.0 mi NW 3.5 mph - N/A   Clear
3:15 AM 29.8 °F 24.9 °F 26.6 °F 88% 30.59 in 7.0 mi North 4.6 mph - N/A   Clear
3:35 AM 30.0 °F 25.2 °F 26.8 °F 88% 30.60 in 7.0 mi North 4.6 mph - N/A   Clear
3:55 AM 30.0 °F 24.1 °F 26.6 °F 87% 30.60 in 7.0 mi North 5.8 mph - N/A   Clear
4:15 AM 29.8 °F 24.9 °F 26.4 °F 87% 30.60 in 7.0 mi NNW 4.6 mph - N/A   Clear
4:35 AM 29.3 °F 25.6 °F 26.1 °F 88% 30.60 in 7.0 mi North 3.5 mph - N/A   Clear
4:55 AM 28.8 °F 25.0 °F 25.9 °F 89% 30.59 in 7.0 mi NNW 3.5 mph - N/A   Clear
5:15 AM 28.6 °F 23.5 °F 25.7 °F 89% 30.59 in 7.0 mi North 4.6 mph - N/A   Clear
5:35 AM 28.6 °F 23.5 °F 26.1 °F 90% 30.59 in 7.0 mi North 4.6 mph - N/A   Clear
5:55 AM 28.9 °F 23.9 °F 25.7 °F 88% 30.60 in 7.0 mi North 4.6 mph - N/A   Clear
6:15 AM 28.4 °F 24.6 °F 25.7 °F 90% 30.60 in 7.0 mi NNW 3.5 mph - N/A   Clear
6:35 AM 28.2 °F - 25.5 °F 90% 30.60 in 7.0 mi Calm Calm - N/A   Clear
6:55 AM 26.6 °F - 24.4 °F 92% 30.60 in 7.0 mi Calm Calm - N/A   Clear
7:15 AM 27.3 °F - 24.4 °F 89% 30.61 in 7.0 mi Calm Calm - N/A   Clear
8:15 AM 29.8 °F 26.3 °F 27.0 °F 89% 30.61 in 5.0 mi NW 3.5 mph - N/A   Clear
8:35 AM 30.9 °F - 27.3 °F 86% 30.62 in 5.0 mi Calm Calm - N/A   Clear
9:15 AM 32.9 °F - 28.9 °F 85% 30.63 in 7.0 mi Calm Calm - N/A   Clear
10:15 AM 35.8 °F - 28.9 °F 76% 30.62 in 10.0 mi Calm Calm - N/A   Clear
10:35 AM 37.6 °F 33.1 °F 29.5 °F 73% 30.62 in 10.0 mi ESE 5.8 mph - N/A   Clear
10:55 AM 39.2 °F 35.9 °F 30.4 °F 71% 30.63 in 10.0 mi ESE 4.6 mph - N/A   Clear
11:15 AM 39.7 °F - 29.8 °F 68% 30.61 in 10.0 mi Calm Calm - N/A   Clear
11:35 AM 40.5 °F 38.4 °F 29.3 °F 64% 30.60 in 10.0 mi SE 3.5 mph - N/A   Clear
11:55 AM 41.0 °F - 30.2 °F 65% 30.60 in 10.0 mi Calm Calm - N/A   Clear
12:35 PM 42.6 °F - 30.2 °F 61% 30.55 in 10.0 mi Calm Calm - N/A   Clear
1:35 PM 44.6 °F - 30.7 °F 58% 30.52 in 10.0 mi Calm Calm - N/A   Clear
2:35 PM 47.1 °F - 32.5 °F 57% 30.48 in 10.0 mi Calm Calm - N/A   Clear
2:55 PM 46.0 °F - 32.2 °F 58% 30.48 in 10.0 mi Calm Calm - N/A   Clear
3:15 PM 47.1 °F - 31.8 °F 55% 30.46 in 10.0 mi Calm Calm - N/A   Clear
3:35 PM 45.5 °F - 32.4 °F 60% 30.45 in 10.0 mi Calm Calm - N/A   Clear
3:55 PM 46.8 °F - 32.4 °F 57% 30.45 in 10.0 mi Calm Calm - N/A   Clear
4:35 PM 44.6 °F - 33.8 °F 66% 30.44 in 10.0 mi Calm Calm - N/A   Clear
4:55 PM 44.4 °F - 34.2 °F 67% 30.44 in 10.0 mi Calm Calm - N/A   Clear
5:15 PM 44.4 °F - 33.4 °F 65% 30.43 in 10.0 mi Calm Calm - N/A   Clear
5:35 PM 43.9 °F - 34.3 °F 69% 30.42 in 10.0 mi Calm Calm - N/A   Clear
5:55 PM 42.6 °F - 32.0 °F 66% 30.42 in 10.0 mi Calm Calm - N/A   Clear
6:15 PM 41.4 °F - 32.0 °F 69% 30.42 in 10.0 mi Calm Calm - N/A   Clear
6:35 PM 40.1 °F - 32.0 °F 73% 30.41 in 10.0 mi Calm Calm - N/A   Clear
6:55 PM 39.0 °F - 33.6 °F 81% 30.40 in 10.0 mi Calm Calm - N/A   Clear
7:15 PM 39.6 °F - 33.6 °F 79% 30.41 in 10.0 mi Calm Calm - N/A   Clear
7:35 PM 40.5 °F - 33.4 °F 76% 30.40 in 10.0 mi Calm Calm - N/A   Clear
8:15 PM 39.6 °F - 34.0 °F 80% 30.40 in 10.0 mi Calm Calm - N/A   Clear
8:35 PM 40.1 °F - 34.2 °F 79% 30.40 in 10.0 mi Calm Calm - N/A   Clear
8:55 PM 38.1 °F - 34.3 °F 86% 30.39 in 10.0 mi Calm Calm - N/A   Clear
9:15 PM 38.7 °F - 34.9 °F 86% 30.38 in 10.0 mi Calm Calm - N/A   Clear
9:35 PM 37.9 °F - 32.4 °F 80% 30.38 in 10.0 mi Calm Calm - N/A   Clear
9:55 PM 37.4 °F - 32.4 °F 82% 30.37 in 10.0 mi Calm Calm - N/A   Clear
10:15 PM 37.8 °F - 32.9 °F 83% 30.36 in 10.0 mi Calm Calm - N/A   Clear
10:35 PM 37.8 °F - 33.4 °F 84% 30.37 in 10.0 mi Calm Calm - N/A   Clear
10:55 PM 38.1 °F - 33.3 °F 83% 30.35 in 10.0 mi Calm Calm - N/A   Clear
11:15 PM 37.9 °F - 33.3 °F 83% 30.34 in 10.0 mi Calm Calm - N/A   Clear
11:35 PM 38.3 °F - 33.4 °F 83% 30.33 in 10.0 mi Calm Calm - N/A   Clear
11:55 PM 38.3 °F - 33.8 °F 84% 30.33 in 10.0 mi Calm Calm - N/A   Clear